Погода в Валдае

Россия / Новгородская область     57°58′48″N   33°14′48″E
темп.,
°C
ветер,
м/с
пор.,
м/с
влажн.,
%
обл.,
%
осадки,
мм/ч
давл.,
гПа
погр.,
м
18 апреля, вс
вс1800:00+7всв4136615 0.0 1026386
03:00+4всв412761 0.0 1026326
06:00+3всв312825 0.0 1026335
09:00+8всв410620 0.0 1026669
12:00+11всв57455 0.0 10251618
15:00+13всв573886 0.0 10252238
18:00+11всв57445 0.0 10251950
21:00+8всв4106290 0.0 1027578
19 апреля, пн
пн1900:00+5всв3117749 0.0 1027454
03:00+5всв398362 0.0 1028402
06:00+3всв398972 0.0 1028389
09:00+6всв467359 0.0 1028677
12:00+8в465995 0.0 10271263
15:00+9в465190 0.0 10271555
18:00+9в465083 0.0 10261667
21:00+6в385818 0.0 1027489
20 апреля, вт
вт2000:00+2всв3106924 0.0 1027345
03:00+2в3973100 0.0 1026369
06:00+1в31070100 0.0 1025446
09:00+3в4958100 0.0 1024800
12:00+4в5875100 0.0 1023904
15:00+5вюв4882100 0.1 1022911
18:00+3в41096100 0.1 1020593
21:00+4в41083100 0.1 1019857
21 апреля, ср
ср2100:00+4в4992100 0.0 1016773
03:00+4всв41197100 0.6 1012789
06:00+2всв51397100 3.3 1008754
09:00+1всв51196100 5.9 1006647
12:00+2всв4996100 0.8 1003463
15:00+1св3798100 3.5 1002366
18:00+1с2499100 1.6 1002221
21:00+1зсз2599100 2.3 1003282
22 апреля, чт
чт2200:00+1з3898100 0.5 1005630
03:00+1зюз4998100 1.6 1008667
06:00+1зюз3998100 0.1 1010667
09:00+3з3895100 0.3 1013656
12:00+5з3682100 0.1 1016861
15:00+7зюз247797 0.1 1018858
18:00+8всв117742 0.0 1019211
21:00+4вюв279362 0.0 1021115